| time (UTC) | temp F | wind direction | speed MPH | gust MPH | rain 1hr in | rain 24hr in | rain mn in | humidity % | barometer mb |
| 20260901134444 | 94 | 135 | 4.0 | 7.0 | 0.00 | 0.11 | 0.00 | 53 | 1015.0 |
| 20260901134242 | 94 | 112 | 4.0 | 7.0 | 0.00 | 0.11 | 0.00 | 50 | 1015.0 |
| 20260901134049 | 94 | 135 | 3.0 | 4.0 | 0.00 | 0.11 | 0.00 | 51 | 1014.9 |
| 20260901133843 | 94 | 112 | 6.0 | 7.0 | 0.00 | 0.11 | 0.00 | 52 | 1015.0 |
| 20260901133442 | 95 | 180 | 4.0 | 7.0 | 0.00 | 0.11 | 0.00 | 52 | 1015.0 |
| 20260901133243 | 95 | 112 | 4.0 | 8.0 | 0.00 | 0.11 | 0.00 | 50 | 1014.9 |
| 20260901133048 | 95 | 158 | 2.0 | 4.0 | 0.00 | 0.11 | 0.00 | 51 | 1015.1 |
| 20260901132843 | 95 | 135 | 3.0 | 6.0 | 0.00 | 0.11 | 0.00 | 50 | 1015.0 |
| 20260901132643 | 95 | 112 | 4.0 | 6.0 | 0.00 | 0.11 | 0.00 | 49 | 1015.2 |
| 20260901132442 | 94 | 135 | 3.0 | 4.0 | 0.00 | 0.11 | 0.00 | 50 | 1015.2 |
| 20260901132242 | 94 | 158 | 4.0 | 7.0 | 0.00 | 0.11 | 0.00 | 50 | 1015.1 |
| 20260901131842 | 95 | 90 | 3.0 | 4.0 | 0.00 | 0.11 | 0.00 | 49 | 1015.2 |
| 20260901131647 | 95 | 135 | 5.0 | 8.0 | 0.00 | 0.11 | 0.00 | 50 | 1015.1 |
| 20260901131442 | 94 | 112 | 3.0 | 6.0 | 0.00 | 0.11 | 0.00 | 49 | 1015.1 |
| 20260901131245 | 94 | 158 | 5.0 | 8.0 | 0.00 | 0.11 | 0.00 | 49 | 1015.2 |
| 20260901131049 | 95 | 112 | 6.0 | 9.0 | 0.00 | 0.11 | 0.00 | 49 | 1015.2 |
| 20260901130842 | 95 | 112 | 4.0 | 6.0 | 0.00 | 0.11 | 0.00 | 48 | 1015.4 |
| 20260901130442 | 96 | 112 | 4.0 | 7.0 | 0.00 | 0.11 | 0.00 | 50 | 1015.2 |
| 20260901130242 | 96 | 135 | 2.0 | 4.0 | 0.00 | 0.11 | 0.00 | 49 | 1015.2 |
| 20260901130050 | 96 | 158 | 3.0 | 4.0 | 0.00 | 0.11 | 0.00 | 49 | 1015.4 |
| 20260901125844 | 95 | 135 | 3.0 | 6.0 | 0.00 | 0.11 | 0.00 | 48 | 1015.3 |
| 20260901125642 | 94 | 112 | 4.0 | 6.0 | 0.00 | 0.11 | 0.00 | 50 | 1015.2 |
| 20260901125443 | 95 | 158 | 4.0 | 9.0 | 0.00 | 0.11 | 0.00 | 51 | 1015.3 |
| 20260901125243 | 95 | 90 | 6.0 | 7.0 | 0.00 | 0.11 | 0.00 | 50 | 1015.2 |
| 20260901125045 | 95 | 112 | 2.0 | 4.0 | 0.00 | 0.11 | 0.00 | 48 | 1015.4 |
| 20260901124842 | 95 | 112 | 4.0 | 6.0 | 0.00 | 0.11 | 0.00 | 49 | 1015.5 |
| 20260901124642 | 95 | 90 | 5.0 | 7.0 | 0.00 | 0.11 | 0.00 | 48 | 1015.2 |
| 20260901124442 | 95 | 90 | 4.0 | 7.0 | 0.00 | 0.11 | 0.00 | 49 | 1015.3 |
| 20260901124244 | 95 | 90 | 6.0 | 8.0 | 0.00 | 0.11 | 0.00 | 50 | 1015.4 |
| 20260901123843 | 95 | 68 | 5.0 | 8.0 | 0.00 | 0.11 | 0.00 | 49 | 1015.6 |
| 20260901123642 | 95 | 135 | 3.0 | 4.0 | 0.00 | 0.11 | 0.00 | 49 | 1015.5 |
| 20260901123443 | 94 | 225 | 4.0 | 4.0 | 0.00 | 0.11 | 0.00 | 49 | 1015.4 |
| 20260901122843 | 95 | 112 | 4.0 | 7.0 | 0.00 | 0.11 | 0.00 | 49 | 1015.4 |
| 20260901122643 | 95 | 90 | 4.0 | 8.0 | 0.00 | 0.11 | 0.00 | 50 | 1015.5 |
| 20260901122443 | 95 | 112 | 4.0 | 4.0 | 0.00 | 0.11 | 0.00 | 50 | 1015.6 |
| 20260901122046 | 95 | 112 | 4.0 | 6.0 | 0.00 | 0.11 | 0.00 | 50 | 1015.5 |
| 20260901121843 | 95 | 158 | 3.0 | 4.0 | 0.00 | 0.11 | 0.00 | 51 | 1015.5 |
| 20260901121642 | 94 | 180 | 4.0 | 6.0 | 0.00 | 0.11 | 0.00 | 52 | 1015.5 |
| 20260901121442 | 94 | 112 | 4.0 | 6.0 | 0.00 | 0.11 | 0.00 | 53 | 1015.6 |
| 20260901121244 | 94 | 135 | 5.0 | 9.0 | 0.00 | 0.11 | 0.00 | 53 | 1015.6 |
| 20260901121100 | 94 | 158 | 3.0 | 4.0 | 0.00 | 0.11 | 0.00 | 52 | 1015.6 |
| 20260901120843 | 95 | 135 | 4.0 | 7.0 | 0.00 | 0.11 | 0.00 | 52 | 1015.7 |
| 20260901120641 | 95 | 135 | 4.0 | 6.0 | 0.00 | 0.11 | 0.00 | 52 | 1015.7 |
| 20260901120442 | 94 | 180 | 5.0 | 8.0 | 0.00 | 0.11 | 0.00 | 52 | 1015.6 |
| 20260901120051 | 94 | 135 | 4.0 | 6.0 | 0.00 | 0.11 | 0.00 | 53 | 1015.6 |
| 20260901115843 | 94 | 135 | 4.0 | 6.0 | 0.00 | 0.11 | 0.00 | 53 | 1015.8 |
| 20260901115643 | 94 | 135 | 4.0 | 6.0 | 0.00 | 0.11 | 0.00 | 53 | 1015.8 |
| 20260901115442 | 94 | 158 | 5.0 | 7.0 | 0.00 | 0.11 | 0.00 | 53 | 1015.7 |
| 20260901115244 | 94 | 202 | 4.0 | 6.0 | 0.00 | 0.11 | 0.00 | 52 | 1015.9 |
| 20260901114843 | 94 | 135 | 3.0 | 4.0 | 0.00 | 0.11 | 0.00 | 51 | 1015.7 |
| 20260901114643 | 94 | 248 | 3.0 | 4.0 | 0.00 | 0.11 | 0.00 | 52 | 1015.8 |
| 20260901114442 | 94 | 135 | 3.0 | 4.0 | 0.00 | 0.11 | 0.00 | 52 | 1015.9 |
| 20260901114243 | 94 | 135 | 3.0 | 4.0 | 0.00 | 0.11 | 0.00 | 53 | 1015.9 |
| 20260901114050 | 94 | 202 | 5.0 | 8.0 | 0.00 | 0.11 | 0.00 | 53 | 1015.9 |
| 20260901113844 | 94 | 112 | 4.0 | 7.0 | 0.00 | 0.11 | 0.00 | 52 | 1016.0 |
| 20260901113644 | 93 | 202 | 3.0 | 4.0 | 0.00 | 0.11 | 0.00 | 53 | 1015.8 |
| 20260901113443 | 93 | 202 | 4.0 | 8.0 | 0.00 | 0.11 | 0.00 | 56 | 1015.8 |
| 20260901113244 | 93 | 135 | 4.0 | 7.0 | 0.00 | 0.11 | 0.00 | 55 | 1015.8 |
| 20260901113049 | 93 | 112 | 7.0 | 9.0 | 0.00 | 0.11 | 0.00 | 55 | 1016.0 |
| 20260901112843 | 93 | 90 | 4.0 | 8.0 | 0.00 | 0.11 | 0.00 | 55 | 1015.8 |
| 20260901112644 | 93 | 202 | 4.0 | 7.0 | 0.00 | 0.11 | 0.00 | 54 | 1016.0 |
| 20260901112442 | 93 | 68 | 3.0 | 4.0 | 0.00 | 0.11 | 0.00 | 53 | 1015.7 |
| 20260901112244 | 94 | 112 | 4.0 | 6.0 | 0.00 | 0.11 | 0.00 | 55 | 1015.8 |
| 20260901112046 | 93 | 158 | 4.0 | 7.0 | 0.00 | 0.11 | 0.00 | 54 | 1016.0 |
| 20260901111843 | 93 | 248 | 4.0 | 6.0 | 0.00 | 0.11 | 0.00 | 55 | 1016.0 |
| 20260901111643 | 93 | 158 | 4.0 | 7.0 | 0.00 | 0.11 | 0.00 | 55 | 1016.1 |
| 20260901111442 | 95 | 112 | 4.0 | 7.0 | 0.00 | 0.11 | 0.00 | 55 | 1015.8 |
| 20260901111243 | 96 | 135 | 2.0 | 4.0 | 0.00 | 0.11 | 0.00 | 52 | 1015.9 |
| 20260901110642 | 95 | 202 | 2.0 | 4.0 | 0.00 | 0.11 | 0.00 | 52 | 1015.9 |
| 20260901110443 | 95 | 112 | 4.0 | 8.0 | 0.00 | 0.11 | 0.00 | 53 | 1016.0 |
| 20260901110242 | 95 | 22 | 1.0 | 2.0 | 0.00 | 0.11 | 0.00 | 47 | 1015.9 |
| 20260901110051 | 95 | 90 | 3.0 | 6.0 | 0.00 | 0.11 | 0.00 | 50 | 1015.9 |
| 20260901105844 | 96 | 45 | 2.0 | 2.0 | 0.00 | 0.11 | 0.00 | 46 | 1015.8 |
| 20260901105643 | 97 | 45 | 4.0 | 6.0 | 0.00 | 0.11 | 0.00 | 44 | 1015.9 |
| 20260901105442 | 97 | 292 | 3.0 | 6.0 | 0.00 | 0.11 | 0.00 | 43 | 1016.0 |
| 20260901105242 | 98 | 112 | 2.0 | 4.0 | 0.00 | 0.11 | 0.00 | 42 | 1016.0 |
| 20260901105046 | 98 | 68 | 0.0 | 2.0 | 0.00 | 0.11 | 0.00 | 42 | 1016.1 |
| 20260901104843 | 98 | 22 | 2.0 | 4.0 | 0.00 | 0.11 | 0.00 | 43 | 1016.1 |
| 20260901104642 | 96 | 158 | 0.0 | 0.0 | 0.00 | 0.11 | 0.00 | 43 | 1016.1 |
| 20260901104243 | 95 | 45 | 2.0 | 2.0 | 0.00 | 0.11 | 0.00 | 44 | 1016.1 |
| 20260901104049 | 95 | 45 | 3.0 | 4.0 | 0.00 | 0.11 | 0.00 | 46 | 1016.3 |
| 20260901103641 | 95 | 270 | 2.0 | 4.0 | 0.00 | 0.11 | 0.00 | 44 | 1016.3 |
| 20260901103243 | 96 | 315 | 2.0 | 4.0 | 0.00 | 0.11 | 0.00 | 44 | 1016.2 |
| 20260901103050 | 95 | 158 | 2.0 | 2.0 | 0.00 | 0.11 | 0.00 | 44 | 1016.3 |
| 20260901102842 | 94 | 45 | 0.0 | 2.0 | 0.00 | 0.11 | 0.00 | 44 | 1016.1 |
| 20260901102642 | 96 | 22 | 3.0 | 4.0 | 0.00 | 0.11 | 0.00 | 44 | 1016.3 |
| 20260901102443 | 96 | 45 | 3.0 | 4.0 | 0.00 | 0.11 | 0.00 | 44 | 1016.1 |
| 20260901102046 | 96 | 292 | 1.0 | 2.0 | 0.00 | 0.11 | 0.00 | 44 | 1016.2 |
| 20260901101842 | 94 | 22 | 2.0 | 2.0 | 0.00 | 0.11 | 0.00 | 46 | 1016.4 |
| 20260901101443 | 94 | 338 | 4.0 | 6.0 | 0.00 | 0.11 | 0.00 | 48 | 1016.4 |
| 20260901101243 | 95 | 0 | 4.0 | 8.0 | 0.00 | 0.11 | 0.00 | 47 | 1016.5 |
| 20260901101050 | 94 | 338 | 2.0 | 4.0 | 0.00 | 0.11 | 0.00 | 49 | 1016.4 |
| 20260901100842 | 94 | 22 | 1.0 | 2.0 | 0.00 | 0.11 | 0.00 | 49 | 1016.6 |
| 20260901100644 | 94 | 68 | 2.0 | 4.0 | 0.00 | 0.11 | 0.00 | 50 | 1016.4 |
| 20260901100442 | 94 | 0 | 4.0 | 8.0 | 0.00 | 0.11 | 0.00 | 50 | 1016.4 |
| 20260901100243 | 94 | 270 | 4.0 | 7.0 | 0.00 | 0.11 | 0.00 | 51 | 1016.5 |
| 20260901100050 | 94 | 270 | 4.0 | 7.0 | 0.00 | 0.11 | 0.00 | 51 | 1016.5 |
| 20260901095643 | 93 | 45 | 4.0 | 6.0 | 0.00 | 0.11 | 0.00 | 51 | 1016.5 |
| 20260901095442 | 93 | 22 | 2.0 | 4.0 | 0.00 | 0.11 | 0.00 | 51 | 1016.4 |
| 20260901095243 | 92 | 315 | 2.0 | 6.0 | 0.00 | 0.11 | 0.00 | 53 | 1016.4 |
| 20260901095047 | 92 | 45 | 2.0 | 4.0 | 0.00 | 0.11 | 0.00 | 53 | 1016.5 |
| 20260901094843 | 92 | 22 | 5.0 | 8.0 | 0.00 | 0.11 | 0.00 | 51 | 1016.5 |
| 20260901094644 | 94 | 68 | 4.0 | 7.0 | 0.00 | 0.11 | 0.00 | 50 | 1016.5 |
| 20260901094443 | 94 | 45 | 2.0 | 4.0 | 0.00 | 0.11 | 0.00 | 50 | 1016.4 |
| 20260901094243 | 94 | 338 | 2.0 | 4.0 | 0.00 | 0.11 | 0.00 | 50 | 1016.5 |
| 20260901094049 | 93 | 22 | 2.0 | 4.0 | 0.00 | 0.11 | 0.00 | 50 | 1016.5 |
| 20260901093844 | 93 | 315 | 3.0 | 8.0 | 0.00 | 0.11 | 0.00 | 50 | 1016.5 |
| 20260901093642 | 93 | 315 | 2.0 | 4.0 | 0.00 | 0.11 | 0.00 | 50 | 1016.5 |
| 20260901093443 | 93 | 292 | 1.0 | 2.0 | 0.00 | 0.11 | 0.00 | 50 | 1016.5 |
| 20260901093244 | 93 | 292 | 3.0 | 4.0 | 0.00 | 0.11 | 0.00 | 52 | 1016.4 |
| 20260901093049 | 94 | 68 | 2.0 | 4.0 | 0.00 | 0.11 | 0.00 | 50 | 1016.7 |
| 20260901092842 | 94 | 68 | 2.0 | 4.0 | 0.00 | 0.11 | 0.00 | 50 | 1016.4 |
| 20260901092641 | 93 | 45 | 2.0 | 2.0 | 0.00 | 0.11 | 0.00 | 51 | 1016.5 |
| 20260901092243 | 93 | 0 | 2.0 | 4.0 | 0.00 | 0.11 | 0.00 | 50 | 1016.6 |
| 20260901092045 | 92 | 292 | 2.0 | 2.0 | 0.00 | 0.11 | 0.00 | 51 | 1016.7 |
| 20260901091643 | 92 | 292 | 2.0 | 4.0 | 0.00 | 0.11 | 0.00 | 50 | 1016.6 |
| 20260901091443 | 92 | 292 | 2.0 | 4.0 | 0.00 | 0.11 | 0.00 | 51 | 1016.4 |
| 20260901091243 | 92 | 292 | 2.0 | 4.0 | 0.00 | 0.11 | 0.00 | 52 | 1016.5 |
| 20260901091049 | 92 | 180 | 2.0 | 4.0 | 0.00 | 0.11 | 0.00 | 53 | 1016.6 |
| 20260901090842 | 91 | 45 | 1.0 | 2.0 | 0.00 | 0.11 | 0.00 | 53 | 1016.5 |
| 20260901090641 | 91 | 22 | 3.0 | 4.0 | 0.00 | 0.11 | 0.00 | 53 | 1016.6 |
| 20260901090442 | 91 | 45 | 2.0 | 4.0 | 0.00 | 0.11 | 0.00 | 53 | 1016.4 |
| 20260901090243 | 91 | 292 | 2.0 | 4.0 | 0.00 | 0.11 | 0.00 | 53 | 1016.4 |
| 20260901085843 | 91 | 338 | 4.0 | 6.0 | 0.00 | 0.11 | 0.00 | 53 | 1016.5 |
| 20260901085643 | 92 | 292 | 2.0 | 2.0 | 0.00 | 0.11 | 0.00 | 51 | 1016.4 |
| 20260901085443 | 92 | 292 | 2.0 | 6.0 | 0.00 | 0.11 | 0.00 | 51 | 1016.6 |
| 20260901085243 | 92 | 292 | 1.0 | 2.0 | 0.00 | 0.11 | 0.00 | 52 | 1016.6 |
| 20260901084843 | 92 | 315 | 3.0 | 4.0 | 0.00 | 0.11 | 0.00 | 52 | 1016.5 |
| 20260901084640 | 92 | 315 | 1.0 | 2.0 | 0.00 | 0.11 | 0.00 | 51 | 1016.6 |
| 20260901084441 | 91 | 22 | 2.0 | 4.0 | 0.00 | 0.11 | 0.00 | 51 | 1016.6 |
| 20260901084244 | 91 | 315 | 1.0 | 2.0 | 0.00 | 0.11 | 0.00 | 51 | 1016.6 |
| 20260901084049 | 90 | 315 | 2.0 | 4.0 | 0.00 | 0.11 | 0.00 | 54 | 1016.8 |
| 20260901083843 | 90 | 292 | 4.0 | 6.0 | 0.00 | 0.11 | 0.00 | 53 | 1016.6 |
| 20260901083642 | 90 | 270 | 2.0 | 6.0 | 0.00 | 0.11 | 0.00 | 53 | 1016.8 |
| 20260901083442 | 91 | 292 | 4.0 | 7.0 | 0.00 | 0.11 | 0.00 | 52 | 1016.7 |
| 20260901083245 | 91 | 338 | 2.0 | 4.0 | 0.00 | 0.11 | 0.00 | 52 | 1016.6 |
| 20260901083048 | 91 | 292 | 3.0 | 4.0 | 0.00 | 0.11 | 0.00 | 52 | 1016.8 |
| 20260901082842 | 91 | 292 | 3.0 | 7.0 | 0.00 | 0.11 | 0.00 | 51 | 1016.7 |
| 20260901082642 | 91 | 0 | 2.0 | 2.0 | 0.00 | 0.11 | 0.00 | 51 | 1016.7 |
| 20260901082442 | 91 | 22 | 3.0 | 6.0 | 0.00 | 0.11 | 0.00 | 51 | 1016.6 |
| 20260901082244 | 92 | 22 | 4.0 | 6.0 | 0.00 | 0.11 | 0.00 | 51 | 1016.6 |
| 20260901082047 | 92 | 338 | 2.0 | 2.0 | 0.00 | 0.11 | 0.00 | 52 | 1016.6 |
| 20260901081843 | 91 | 135 | 1.0 | 2.0 | 0.00 | 0.11 | 0.00 | 54 | 1016.6 |
| 20260901081641 | 90 | 292 | 1.0 | 2.0 | 0.00 | 0.11 | 0.00 | 54 | 1016.5 |
| 20260901081443 | 90 | 292 | 2.0 | 6.0 | 0.00 | 0.11 | 0.00 | 54 | 1016.6 |
| 20260901081245 | 90 | 292 | 1.0 | 4.0 | 0.00 | 0.11 | 0.00 | 55 | 1016.6 |
| 20260901081049 | 90 | 22 | 2.0 | 2.0 | 0.00 | 0.11 | 0.00 | 56 | 1016.7 |
| 20260901080843 | 90 | 292 | 2.0 | 2.0 | 0.00 | 0.11 | 0.00 | 57 | 1016.7 |
| 20260901080642 | 90 | 338 | 1.0 | 2.0 | 0.00 | 0.11 | 0.00 | 56 | 1016.5 |
| 20260901080442 | 90 | 68 | 2.0 | 4.0 | 0.00 | 0.11 | 0.00 | 56 | 1016.8 |
| 20260901080244 | 90 | 0 | 2.0 | 4.0 | 0.00 | 0.11 | 0.00 | 55 | 1016.6 |
| 20260901080050 | 90 | 338 | 2.0 | 4.0 | 0.00 | 0.11 | 0.00 | 56 | 1016.7 |
| 20260901075642 | 90 | 270 | 1.0 | 2.0 | 0.00 | 0.11 | 0.00 | 58 | 1016.6 |
| 20260901075244 | 89 | 68 | 2.0 | 2.0 | 0.00 | 0.11 | 0.00 | 58 | 1016.6 |
| 20260901074644 | 89 | 45 | 4.0 | 4.0 | 0.00 | 0.11 | 0.00 | 59 | 1016.5 |
| 20260901074442 | 89 | 45 | 3.0 | 6.0 | 0.00 | 0.11 | 0.00 | 60 | 1016.4 |
| 20260901074244 | 90 | 45 | 4.0 | 6.0 | 0.00 | 0.11 | 0.00 | 58 | 1016.3 |
| 20260901073842 | 92 | 22 | 0.0 | 2.0 | 0.00 | 0.11 | 0.00 | 53 | 1016.3 |
| 20260901073642 | 92 | 90 | 1.0 | 2.0 | 0.00 | 0.11 | 0.00 | 53 | 1016.3 |
| 20260901073442 | 92 | 112 | 1.0 | 2.0 | 0.00 | 0.11 | 0.00 | 53 | 1016.3 |
| 20260901073244 | 91 | 270 | 1.0 | 2.0 | 0.00 | 0.11 | 0.00 | 54 | 1016.5 |
| 20260901073051 | 91 | 0 | 1.0 | 2.0 | 0.00 | 0.11 | 0.00 | 54 | 1016.4 |
| 20260901072651 | 90 | 338 | 0.0 | 2.0 | 0.00 | 0.11 | 0.00 | 56 | 1016.6 |
| 20260901072443 | 90 | 248 | 1.0 | 4.0 | 0.00 | 0.11 | 0.00 | 55 | 1016.3 |
| 20260901071642 | 89 | 292 | 0.0 | 2.0 | 0.00 | 0.11 | 0.00 | 58 | 1016.5 |
| 20260901071243 | 87 | 248 | 2.0 | 2.0 | 0.00 | 0.11 | 0.00 | 60 | 1016.5 |
| 20260901071051 | 87 | 315 | 0.0 | 2.0 | 0.00 | 0.11 | 0.00 | 61 | 1016.4 |
| 20260901070843 | 87 | 315 | 1.0 | 2.0 | 0.00 | 0.11 | 0.00 | 61 | 1016.2 |
| 20260901070642 | 86 | 270 | 1.0 | 2.0 | 0.00 | 0.11 | 0.00 | 61 | 1016.4 |
| 20260901070444 | 86 | 292 | 2.0 | 4.0 | 0.00 | 0.11 | 0.00 | 61 | 1016.3 |
| 20260901070245 | 86 | 270 | 0.0 | 2.0 | 0.00 | 0.11 | 0.00 | 62 | 1016.2 |
| 20260901070049 | 85 | 292 | 1.0 | 2.0 | 0.00 | 0.11 | 0.00 | 63 | 1016.1 |
| 20260901065842 | 85 | 270 | 2.0 | 4.0 | 0.00 | 0.11 | 0.00 | 63 | 1016.2 |
| 20260901065441 | 85 | 270 | 3.0 | 4.0 | 0.00 | 0.11 | 0.00 | 64 | 1016.2 |
| 20260901065243 | 85 | 248 | 3.0 | 4.0 | 0.00 | 0.11 | 0.00 | 64 | 1016.1 |
| 20260901065047 | 85 | 270 | 2.0 | 4.0 | 0.00 | 0.11 | 0.00 | 64 | 1016.2 |
| 20260901064841 | 85 | 248 | 2.0 | 4.0 | 0.00 | 0.11 | 0.00 | 63 | 1016.4 |
| 20260901064642 | 85 | 292 | 2.0 | 4.0 | 0.00 | 0.11 | 0.00 | 65 | 1016.3 |
| 20260901064243 | 84 | 292 | 2.0 | 4.0 | 0.00 | 0.11 | 0.00 | 64 | 1016.1 |
| 20260901064050 | 84 | 270 | 2.0 | 2.0 | 0.00 | 0.11 | 0.00 | 65 | 1016.3 |
| 20260901063442 | 84 | 270 | 2.0 | 4.0 | 0.00 | 0.11 | 0.00 | 66 | 1016.3 |
| 20260901063243 | 83 | 270 | 2.0 | 2.0 | 0.00 | 0.11 | 0.00 | 67 | 1016.4 |
| 20260901063048 | 83 | 270 | 3.0 | 4.0 | 0.00 | 0.11 | 0.00 | 66 | 1016.4 |
| 20260901062842 | 83 | 270 | 2.0 | 4.0 | 0.00 | 0.11 | 0.00 | 67 | 1016.3 |
| 20260901062641 | 83 | 292 | 2.0 | 4.0 | 0.00 | 0.11 | 0.00 | 67 | 1016.3 |
| 20260901062443 | 83 | 270 | 4.0 | 4.0 | 0.00 | 0.11 | 0.00 | 67 | 1016.4 |
| 20260901062243 | 83 | 270 | 2.0 | 4.0 | 0.00 | 0.11 | 0.00 | 67 | 1016.4 |
| 20260901062046 | 83 | 292 | 2.0 | 4.0 | 0.00 | 0.11 | 0.00 | 67 | 1016.3 |
| 20260901061842 | 83 | 270 | 2.0 | 2.0 | 0.00 | 0.11 | 0.00 | 68 | 1016.4 |
| 20260901061643 | 82 | 270 | 2.0 | 4.0 | 0.00 | 0.11 | 0.00 | 68 | 1016.4 |
| 20260901061442 | 82 | 292 | 3.0 | 4.0 | 0.00 | 0.11 | 0.00 | 68 | 1016.5 |
| 20260901061244 | 82 | 270 | 4.0 | 6.0 | 0.00 | 0.11 | 0.00 | 68 | 1016.4 |
| 20260901061101 | 82 | 270 | 2.0 | 4.0 | 0.00 | 0.11 | 0.00 | 68 | 1016.4 |
| 20260901060644 | 82 | 270 | 2.0 | 4.0 | 0.00 | 0.11 | 0.00 | 69 | 1016.4 |
| 20260901060244 | 82 | 292 | 2.0 | 4.0 | 0.00 | 0.11 | 0.00 | 70 | 1016.5 |
| 20260901060051 | 81 | 270 | 3.0 | 4.0 | 0.00 | 0.11 | 0.00 | 69 | 1016.3 |
| 20260901055843 | 81 | 292 | 2.0 | 2.0 | 0.00 | 0.11 | 0.00 | 70 | 1016.5 |
| 20260901055642 | 81 | 292 | 2.0 | 4.0 | 0.00 | 0.11 | 0.00 | 70 | 1016.4 |
| 20260901055443 | 81 | 292 | 2.0 | 2.0 | 0.00 | 0.11 | 0.00 | 71 | 1016.5 |
| 20260901055244 | 81 | 292 | 0.0 | 2.0 | 0.00 | 0.11 | 0.00 | 71 | 1016.3 |
| 20260901055047 | 81 | 292 | 0.0 | 2.0 | 0.00 | 0.11 | 0.00 | 72 | 1016.4 |
| 20260901054844 | 81 | 292 | 0.0 | 0.0 | 0.00 | 0.11 | 0.00 | 73 | 1016.5 |
| 20260901054642 | 80 | 292 | 0.0 | 0.0 | 0.00 | 0.11 | 0.00 | 74 | 1016.4 |
| 20260901054444 | 80 | 292 | 0.0 | 0.0 | 0.00 | 0.11 | 0.00 | 74 | 1016.5 |
| 20260901054256 | 80 | 292 | 0.0 | 0.0 | 0.00 | 0.11 | 0.00 | 75 | 1016.7 |
| 20260901054049 | 80 | 292 | 1.0 | 2.0 | 0.00 | 0.11 | 0.00 | 75 | 1016.4 |
| 20260901053842 | 79 | 292 | 1.0 | 2.0 | 0.00 | 0.11 | 0.00 | 75 | 1016.2 |
| 20260901053643 | 79 | 292 | 2.0 | 2.0 | 0.00 | 0.11 | 0.00 | 75 | 1016.5 |
| 20260901053443 | 79 | 292 | 1.0 | 2.0 | 0.00 | 0.11 | 0.00 | 75 | 1016.4 |
| 20260901053244 | 79 | 292 | 1.0 | 2.0 | 0.00 | 0.11 | 0.00 | 75 | 1016.5 |
| 20260901053049 | 78 | 270 | 1.0 | 2.0 | 0.00 | 0.11 | 0.00 | 76 | 1016.4 |
| 20260901052843 | 78 | 270 | 1.0 | 2.0 | 0.00 | 0.11 | 0.00 | 76 | 1016.4 |
| 20260901052642 | 78 | 292 | 0.0 | 0.0 | 0.00 | 0.11 | 0.00 | 76 | 1016.5 |
| 20260901052443 | 78 | 270 | 0.0 | 0.0 | 0.00 | 0.11 | 0.00 | 76 | 1016.6 |
| 20260901052244 | 78 | 292 | 0.0 | 0.0 | 0.00 | 0.11 | 0.00 | 77 | 1016.6 |
| 20260901052045 | 77 | 292 | 0.0 | 0.0 | 0.00 | 0.11 | 0.00 | 77 | 1016.5 |
| 20260901051842 | 77 | 270 | 0.0 | 0.0 | 0.00 | 0.11 | 0.00 | 77 | 1016.4 |
| 20260901051644 | 77 | 270 | 0.0 | 0.0 | 0.00 | 0.11 | 0.00 | 78 | 1016.4 |
| 20260901051051 | 76 | 292 | 0.0 | 0.0 | 0.00 | 0.11 | 0.00 | 80 | 1016.3 |
| 20260901050844 | 76 | 292 | 0.0 | 0.0 | 0.00 | 0.11 | 0.00 | 80 | 1016.5 |
| 20260901050443 | 76 | 292 | 0.0 | 0.0 | 0.00 | 0.11 | 0.00 | 80 | 1016.3 |
| 20260901050244 | 75 | 292 | 0.0 | 0.0 | 0.00 | 0.11 | 0.00 | 81 | 1016.1 |
| 20260901045843 | 75 | 292 | 0.0 | 0.0 | 0.00 | 0.11 | 0.00 | 81 | 1016.3 |
| 20260901045443 | 75 | 292 | 0.0 | 0.0 | 0.00 | 0.11 | 0.00 | 81 | 1016.1 |
| 20260901045245 | 75 | 270 | 0.0 | 0.0 | 0.00 | 0.11 | 0.00 | 81 | 1016.2 |
| 20260901044842 | 75 | 292 | 0.0 | 0.0 | 0.00 | 0.11 | 0.00 | 82 | 1016.2 |
| 20260901044646 | 75 | 292 | 1.0 | 2.0 | 0.00 | 0.11 | 0.00 | 82 | 1016.2 |
| 20260901044443 | 75 | 292 | 0.0 | 2.0 | 0.00 | 0.11 | 0.00 | 82 | 1015.9 |
| 20260901044244 | 75 | 270 | 2.0 | 2.0 | 0.00 | 0.11 | 0.00 | 82 | 1016.1 |
| 20260901044051 | 75 | 292 | 1.0 | 2.0 | 0.00 | 0.11 | 0.00 | 82 | 1016.3 |
| 20260901043844 | 75 | 292 | 2.0 | 2.0 | 0.00 | 0.11 | 0.00 | 82 | 1015.8 |
| 20260901043643 | 74 | 292 | 2.0 | 2.0 | 0.00 | 0.11 | 0.00 | 82 | 1015.9 |
| 20260901043443 | 75 | 248 | 2.0 | 2.0 | 0.00 | 0.11 | 0.00 | 83 | 1016.1 |
| 20260901043051 | 74 | 270 | 2.0 | 2.0 | 0.00 | 0.11 | 0.00 | 83 | 1015.8 |
| 20260901042841 | 74 | 292 | 2.0 | 2.0 | 0.00 | 0.11 | 0.00 | 83 | 1015.9 |
| 20260901042642 | 74 | 292 | 2.0 | 2.0 | 0.00 | 0.11 | 0.00 | 83 | 1015.9 |
| 20260901042442 | 74 | 292 | 0.0 | 0.0 | 0.00 | 0.11 | 0.00 | 83 | 1016.1 |
| 20260901042300 | 74 | 292 | 1.0 | 2.0 | 0.00 | 0.11 | 0.00 | 83 | 1015.7 |
| 20260901042045 | 74 | 292 | 1.0 | 2.0 | 0.00 | 0.11 | 0.00 | 83 | 1016.0 |
| 20260901041842 | 74 | 315 | 0.0 | 0.0 | 0.00 | 0.11 | 0.00 | 83 | 1015.9 |
| 20260901041643 | 75 | 292 | 1.0 | 2.0 | 0.00 | 0.11 | 0.00 | 83 | 1016.0 |
| 20260901041442 | 75 | 315 | 1.0 | 2.0 | 0.00 | 0.11 | 0.00 | 83 | 1015.8 |
| 20260901041245 | 75 | 315 | 0.0 | 0.0 | 0.00 | 0.11 | 0.00 | 83 | 1015.9 |
| 20260901040644 | 75 | 292 | 0.0 | 0.0 | 0.00 | 0.11 | 0.00 | 83 | 1016.0 |
| 20260901040442 | 75 | 292 | 1.0 | 2.0 | 0.00 | 0.11 | 0.00 | 83 | 1016.0 |
| 20260901040241 | 75 | 315 | 1.0 | 2.0 | 0.00 | 0.11 | 0.00 | 83 | 1016.1 |
| 20260901035843 | 75 | 315 | 0.0 | 0.0 | 0.00 | 0.11 | 0.00 | 83 | 1016.0 |
| 20260901035442 | 75 | 315 | 0.0 | 0.0 | 0.00 | 0.11 | 0.00 | 82 | 1016.2 |
| 20260901035243 | 75 | 315 | 0.0 | 0.0 | 0.00 | 0.11 | 0.00 | 82 | 1016.0 |
| 20260901035047 | 75 | 315 | 0.0 | 0.0 | 0.00 | 0.11 | 0.00 | 82 | 1016.0 |
| 20260901034843 | 75 | 315 | 0.0 | 0.0 | 0.00 | 0.11 | 0.00 | 82 | 1016.0 |
| 20260901034642 | 75 | 315 | 0.0 | 0.0 | 0.00 | 0.11 | 0.00 | 82 | 1016.2 |
| 20260901034443 | 75 | 315 | 0.0 | 0.0 | 0.00 | 0.11 | 0.00 | 81 | 1016.1 |
| 20260901034244 | 75 | 315 | 0.0 | 0.0 | 0.00 | 0.11 | 0.00 | 81 | 1016.0 |
| 20260901034049 | 75 | 315 | 1.0 | 2.0 | 0.00 | 0.11 | 0.00 | 81 | 1016.1 |
| 20260901033841 | 75 | 315 | 2.0 | 2.0 | 0.00 | 0.11 | 0.00 | 81 | 1016.0 |
| 20260901033644 | 75 | 315 | 1.0 | 2.0 | 0.00 | 0.11 | 0.00 | 81 | 1016.0 |
| 20260901033443 | 75 | 292 | 1.0 | 2.0 | 0.00 | 0.11 | 0.00 | 81 | 1016.2 |
| 20260901033244 | 75 | 315 | 2.0 | 2.0 | 0.00 | 0.11 | 0.00 | 81 | 1015.8 |
| 20260901033051 | 75 | 315 | 2.0 | 2.0 | 0.00 | 0.11 | 0.00 | 81 | 1015.9 |
| 20260901032843 | 75 | 315 | 2.0 | 4.0 | 0.00 | 0.11 | 0.00 | 81 | 1016.0 |
| 20260901032643 | 75 | 315 | 2.0 | 2.0 | 0.00 | 0.11 | 0.00 | 81 | 1016.1 |
| 20260901032443 | 75 | 315 | 2.0 | 2.0 | 0.00 | 0.11 | 0.00 | 81 | 1016.0 |
| 20260901032242 | 75 | 315 | 2.0 | 2.0 | 0.00 | 0.11 | 0.00 | 81 | 1015.9 |
| 20260901032046 | 75 | 315 | 2.0 | 2.0 | 0.00 | 0.11 | 0.00 | 81 | 1016.0 |
| 20260901031841 | 75 | 315 | 0.0 | 2.0 | 0.00 | 0.11 | 0.00 | 81 | 1016.0 |
| 20260901031642 | 75 | 315 | 1.0 | 2.0 | 0.00 | 0.11 | 0.00 | 81 | 1015.8 |
| 20260901031442 | 75 | 315 | 1.0 | 2.0 | 0.00 | 0.11 | 0.00 | 81 | 1015.9 |
| 20260901031242 | 75 | 292 | 1.0 | 2.0 | 0.00 | 0.11 | 0.00 | 81 | 1015.8 |
| 20260901031049 | 76 | 292 | 0.0 | 0.0 | 0.00 | 0.11 | 0.00 | 80 | 1016.0 |
| 20260901030843 | 76 | 292 | 1.0 | 2.0 | 0.00 | 0.11 | 0.00 | 80 | 1016.0 |
| 20260901030643 | 76 | 315 | 2.0 | 4.0 | 0.00 | 0.11 | 0.00 | 80 | 1015.8 |
| 20260901030243 | 76 | 315 | 2.0 | 2.0 | 0.00 | 0.11 | 0.00 | 80 | 1015.8 |
| 20260901030049 | 76 | 315 | 2.0 | 4.0 | 0.00 | 0.11 | 0.00 | 80 | 1015.8 |
| 20260901025842 | 76 | 292 | 1.0 | 2.0 | 0.00 | 0.11 | 0.00 | 80 | 1015.8 |
| 20260901025442 | 76 | 315 | 2.0 | 2.0 | 0.00 | 0.11 | 0.00 | 80 | 1015.7 |
| 20260901025243 | 76 | 315 | 2.0 | 2.0 | 0.00 | 0.11 | 0.00 | 80 | 1015.8 |
| 20260901025046 | 76 | 315 | 1.0 | 2.0 | 0.00 | 0.11 | 0.00 | 80 | 1015.7 |
| 20260901024841 | 76 | 315 | 1.0 | 2.0 | 0.00 | 0.11 | 0.00 | 80 | 1015.9 |
| 20260901024642 | 76 | 292 | 0.0 | 2.0 | 0.00 | 0.11 | 0.00 | 80 | 1015.7 |
| 20260901024443 | 76 | 292 | 0.0 | 0.0 | 0.00 | 0.11 | 0.00 | 80 | 1015.8 |
| 20260901024050 | 76 | 292 | 0.0 | 0.0 | 0.00 | 0.11 | 0.00 | 80 | 1015.7 |
| 20260901023841 | 76 | 292 | 0.0 | 0.0 | 0.00 | 0.11 | 0.00 | 80 | 1015.6 |
| 20260901023643 | 76 | 292 | 1.0 | 2.0 | 0.00 | 0.11 | 0.00 | 80 | 1015.8 |
| 20260901023442 | 75 | 270 | 2.0 | 2.0 | 0.00 | 0.11 | 0.00 | 81 | 1015.5 |
| 20260901023242 | 75 | 292 | 2.0 | 2.0 | 0.00 | 0.11 | 0.00 | 81 | 1015.6 |
| 20260901022842 | 75 | 292 | 1.0 | 2.0 | 0.00 | 0.11 | 0.00 | 81 | 1015.5 |
| 20260901022643 | 75 | 292 | 2.0 | 2.0 | 0.00 | 0.11 | 0.00 | 81 | 1015.8 |
| 20260901022441 | 75 | 315 | 2.0 | 2.0 | 0.00 | 0.11 | 0.00 | 81 | 1015.7 |
| 20260901022045 | 75 | 315 | 2.0 | 2.0 | 0.00 | 0.11 | 0.00 | 82 | 1015.7 |
| 20260901021843 | 75 | 292 | 2.0 | 2.0 | 0.00 | 0.11 | 0.00 | 82 | 1015.6 |
| 20260901021642 | 75 | 315 | 2.0 | 2.0 | 0.00 | 0.11 | 0.00 | 82 | 1015.6 |
| 20260901021443 | 75 | 292 | 2.0 | 2.0 | 0.00 | 0.11 | 0.00 | 82 | 1015.5 |
| 20260901021241 | 76 | 315 | 1.0 | 2.0 | 0.00 | 0.11 | 0.00 | 82 | 1015.6 |
| 20260901021047 | 76 | 315 | 1.0 | 2.0 | 0.00 | 0.11 | 0.00 | 81 | 1015.6 |
| 20260901020643 | 76 | 315 | 0.0 | 0.0 | 0.00 | 0.11 | 0.00 | 81 | 1015.8 |
| 20260901020441 | 76 | 315 | 0.0 | 0.0 | 0.00 | 0.11 | 0.00 | 80 | 1015.5 |
| 20260901020242 | 76 | 292 | 0.0 | 0.0 | 0.00 | 0.11 | 0.00 | 80 | 1015.8 |
| 20260901020050 | 76 | 292 | 0.0 | 0.0 | 0.00 | 0.11 | 0.00 | 80 | 1015.6 |
| 20260901015642 | 76 | 292 | 0.0 | 0.0 | 0.00 | 0.11 | 0.00 | 79 | 1015.7 |
| 20260901015441 | 76 | 292 | 0.0 | 0.0 | 0.00 | 0.11 | 0.00 | 79 | 1015.6 |
| 20260901015242 | 77 | 315 | 1.0 | 2.0 | 0.00 | 0.11 | 0.00 | 79 | 1015.7 |
| 20260901015044 | 77 | 315 | 2.0 | 2.0 | 0.00 | 0.11 | 0.00 | 78 | 1015.8 |
| 20260901014842 | 77 | 315 | 1.0 | 2.0 | 0.00 | 0.11 | 0.00 | 78 | 1015.7 |
| 20260901014643 | 77 | 315 | 1.0 | 2.0 | 0.00 | 0.11 | 0.00 | 78 | 1015.7 |
| 20260901014442 | 77 | 292 | 2.0 | 2.0 | 0.00 | 0.11 | 0.00 | 78 | 1015.7 |
| 20260901014241 | 77 | 292 | 1.0 | 2.0 | 0.00 | 0.11 | 0.00 | 78 | 1015.5 |
| 20260901014049 | 77 | 292 | 2.0 | 4.0 | 0.00 | 0.11 | 0.00 | 78 | 1015.6 |
| 20260901013843 | 76 | 292 | 2.0 | 2.0 | 0.00 | 0.11 | 0.00 | 78 | 1015.7 |
| 20260901013644 | 76 | 292 | 2.0 | 2.0 | 0.00 | 0.11 | 0.00 | 79 | 1015.6 |
| 20260901013441 | 76 | 292 | 1.0 | 2.0 | 0.00 | 0.11 | 0.00 | 80 | 1015.5 |
| 20260901013048 | 76 | 292 | 1.0 | 2.0 | 0.00 | 0.11 | 0.00 | 79 | 1015.5 |
| 20260901012842 | 77 | 292 | 0.0 | 2.0 | 0.00 | 0.11 | 0.00 | 79 | 1015.5 |
| 20260901012642 | 77 | 315 | 1.0 | 2.0 | 0.00 | 0.11 | 0.00 | 79 | 1015.5 |
| 20260901012441 | 77 | 292 | 0.0 | 2.0 | 0.00 | 0.11 | 0.00 | 79 | 1015.5 |
| 20260901012242 | 77 | 292 | 0.0 | 2.0 | 0.00 | 0.11 | 0.00 | 78 | 1015.6 |
| 20260901012045 | 77 | 315 | 2.0 | 2.0 | 0.00 | 0.11 | 0.00 | 78 | 1015.3 |
| 20260901011842 | 77 | 292 | 2.0 | 2.0 | 0.00 | 0.11 | 0.00 | 78 | 1015.4 |
| 20260901011442 | 77 | 292 | 2.0 | 4.0 | 0.00 | 0.11 | 0.00 | 77 | 1015.4 |
| 20260901011241 | 77 | 315 | 1.0 | 2.0 | 0.00 | 0.11 | 0.00 | 77 | 1015.4 |
| 20260901011049 | 78 | 292 | 2.0 | 2.0 | 0.00 | 0.11 | 0.00 | 77 | 1015.5 |
| 20260901010843 | 78 | 292 | 1.0 | 2.0 | 0.00 | 0.11 | 0.00 | 76 | 1015.5 |
| 20260901010642 | 78 | 292 | 2.0 | 4.0 | 0.00 | 0.11 | 0.00 | 76 | 1015.4 |
| 20260901010442 | 78 | 292 | 2.0 | 2.0 | 0.00 | 0.11 | 0.00 | 76 | 1015.4 |
| 20260901010242 | 78 | 292 | 2.0 | 4.0 | 0.00 | 0.11 | 0.00 | 76 | 1015.5 |
| 20260901010048 | 78 | 292 | 2.0 | 2.0 | 0.00 | 0.11 | 0.00 | 76 | 1015.5 |
| 20260901005842 | 78 | 292 | 2.0 | 2.0 | 0.00 | 0.11 | 0.00 | 76 | 1015.2 |
| 20260901005443 | 78 | 292 | 2.0 | 4.0 | 0.00 | 0.11 | 0.00 | 76 | 1015.4 |
| 20260901005243 | 78 | 292 | 2.0 | 2.0 | 0.00 | 0.11 | 0.00 | 76 | 1015.4 |
| 20260901004841 | 78 | 292 | 2.0 | 2.0 | 0.00 | 0.11 | 0.00 | 75 | 1015.3 |
| 20260901004442 | 78 | 292 | 2.0 | 4.0 | 0.00 | 0.11 | 0.00 | 75 | 1015.3 |
| 20260901004242 | 78 | 292 | 2.0 | 4.0 | 0.00 | 0.11 | 0.00 | 74 | 1015.6 |
| 20260901004051 | 78 | 270 | 3.0 | 4.0 | 0.00 | 0.11 | 0.00 | 75 | 1015.4 |
| 20260901003842 | 79 | 292 | 2.0 | 4.0 | 0.00 | 0.11 | 0.00 | 74 | 1015.3 |
| 20260901003642 | 79 | 292 | 2.0 | 2.0 | 0.00 | 0.11 | 0.00 | 74 | 1015.3 |
| 20260901003442 | 79 | 270 | 3.0 | 4.0 | 0.00 | 0.11 | 0.00 | 74 | 1015.2 |
| 20260901003242 | 79 | 292 | 2.0 | 4.0 | 0.00 | 0.11 | 0.00 | 74 | 1015.3 |
| 20260901003050 | 79 | 270 | 4.0 | 6.0 | 0.00 | 0.11 | 0.00 | 74 | 1015.5 |
| 20260901002644 | 79 | 292 | 3.0 | 6.0 | 0.00 | 0.11 | 0.00 | 74 | 1015.3 |
| 20260901002443 | 78 | 292 | 4.0 | 6.0 | 0.00 | 0.11 | 0.00 | 74 | 1015.2 |
| 20260901001842 | 78 | 270 | 3.0 | 6.0 | 0.00 | 0.11 | 0.00 | 76 | 1015.2 |
| 20260901001650 | 78 | 292 | 3.0 | 4.0 | 0.00 | 0.11 | 0.00 | 76 | 1015.1 |
| 20260901001443 | 78 | 270 | 3.0 | 4.0 | 0.00 | 0.11 | 0.00 | 75 | 1015.1 |
| 20260901001244 | 78 | 292 | 2.0 | 4.0 | 0.00 | 0.11 | 0.00 | 75 | 1015.2 |
| 20260901001048 | 78 | 292 | 2.0 | 4.0 | 0.00 | 0.11 | 0.00 | 75 | 1015.5 |
| 20260901000843 | 79 | 292 | 3.0 | 4.0 | 0.00 | 0.11 | 0.00 | 74 | 1015.2 |
| 20260901000642 | 79 | 292 | 3.0 | 4.0 | 0.00 | 0.11 | 0.00 | 74 | 1015.4 |
| 20260901000443 | 79 | 292 | 3.0 | 4.0 | 0.00 | 0.11 | 0.00 | 74 | 1015.3 |
| 20260901000243 | 79 | 292 | 3.0 | 4.0 | 0.00 | 0.11 | 0.00 | 74 | 1015.4 |
| 20260831235843 | 79 | 292 | 3.0 | 4.0 | 0.00 | 0.11 | 0.00 | 74 | 1015.2 |
| 20260831235442 | 79 | 292 | 2.0 | 4.0 | 0.00 | 0.11 | 0.00 | 73 | 1015.2 |
| 20260831235243 | 79 | 270 | 4.0 | 4.0 | 0.00 | 0.11 | 0.00 | 73 | 1015.2 |
| 20260831235047 | 79 | 248 | 4.0 | 4.0 | 0.00 | 0.11 | 0.00 | 73 | 1015.3 |
| 20260831234843 | 79 | 270 | 3.0 | 4.0 | 0.00 | 0.11 | 0.00 | 74 | 1015.3 |
| 20260831234642 | 79 | 270 | 2.0 | 4.0 | 0.00 | 0.11 | 0.00 | 74 | 1015.3 |
| 20260831234241 | 79 | 270 | 2.0 | 2.0 | 0.00 | 0.11 | 0.00 | 74 | 1015.3 |
| 20260831233842 | 79 | 292 | 2.0 | 4.0 | 0.00 | 0.11 | 0.00 | 74 | 1015.2 |
| 20260831233443 | 79 | 292 | 2.0 | 4.0 | 0.00 | 0.11 | 0.00 | 74 | 1015.2 |
| 20260831233243 | 79 | 292 | 3.0 | 4.0 | 0.00 | 0.11 | 0.00 | 74 | 1015.1 |
| 20260831233048 | 79 | 248 | 3.0 | 4.0 | 0.00 | 0.11 | 0.00 | 74 | 1015.2 |
| 20260831232843 | 79 | 270 | 3.0 | 6.0 | 0.00 | 0.11 | 0.00 | 74 | 1015.0 |
| 20260831232643 | 79 | 315 | 2.0 | 4.0 | 0.00 | 0.11 | 0.00 | 74 | 1015.0 |
| 20260831232443 | 79 | 270 | 2.0 | 4.0 | 0.00 | 0.11 | 0.00 | 74 | 1015.0 |
| 20260831232243 | 79 | 292 | 3.0 | 4.0 | 0.00 | 0.11 | 0.00 | 74 | 1015.0 |
| 20260831232046 | 79 | 292 | 3.0 | 4.0 | 0.00 | 0.11 | 0.00 | 75 | 1015.1 |
| 20260831231844 | 79 | 292 | 2.0 | 4.0 | 0.00 | 0.11 | 0.00 | 74 | 1015.3 |
| 20260831231644 | 79 | 270 | 3.0 | 4.0 | 0.00 | 0.11 | 0.00 | 74 | 1015.2 |
| 20260831231443 | 79 | 248 | 2.0 | 4.0 | 0.00 | 0.11 | 0.00 | 74 | 1015.2 |
| 20260831231242 | 79 | 292 | 2.0 | 4.0 | 0.00 | 0.11 | 0.00 | 74 | 1015.2 |
| 20260831231051 | 79 | 270 | 3.0 | 4.0 | 0.00 | 0.11 | 0.00 | 75 | 1015.3 |
| 20260831230844 | 79 | 292 | 2.0 | 2.0 | 0.00 | 0.11 | 0.00 | 75 | 1015.2 |
| 20260831230643 | 79 | 292 | 2.0 | 4.0 | 0.00 | 0.11 | 0.00 | 75 | 1015.0 |
| 20260831230443 | 79 | 292 | 2.0 | 4.0 | 0.00 | 0.11 | 0.00 | 75 | 1015.3 |
| 20260831230243 | 78 | 292 | 3.0 | 4.0 | 0.00 | 0.11 | 0.00 | 75 | 1015.3 |
| 20260831230051 | 78 | 270 | 3.0 | 6.0 | 0.00 | 0.11 | 0.00 | 76 | 1015.1 |
| 20260831225643 | 78 | 270 | 3.0 | 4.0 | 0.00 | 0.11 | 0.00 | 76 | 1015.0 |
| 20260831225444 | 78 | 292 | 2.0 | 4.0 | 0.00 | 0.11 | 0.00 | 76 | 1015.3 |
| 20260831225243 | 79 | 292 | 2.0 | 4.0 | 0.00 | 0.11 | 0.00 | 76 | 1015.1 |
| 20260831225048 | 79 | 270 | 2.0 | 4.0 | 0.00 | 0.11 | 0.00 | 76 | 1015.0 |
| 20260831224844 | 79 | 292 | 2.0 | 4.0 | 0.00 | 0.11 | 0.00 | 76 | 1015.2 |
| 20260831224642 | 79 | 270 | 2.0 | 4.0 | 0.00 | 0.11 | 0.00 | 76 | 1015.0 |
| 20260831224442 | 79 | 292 | 2.0 | 4.0 | 0.00 | 0.11 | 0.00 | 75 | 1015.2 |
| 20260831224242 | 79 | 292 | 2.0 | 2.0 | 0.00 | 0.11 | 0.00 | 75 | 1015.0 |
| 20260831224054 | 79 | 270 | 2.0 | 4.0 | 0.00 | 0.11 | 0.00 | 75 | 1014.8 |
| 20260831223643 | 79 | 270 | 3.0 | 4.0 | 0.00 | 0.11 | 0.00 | 75 | 1014.8 |
| 20260831223443 | 79 | 270 | 2.0 | 4.0 | 0.00 | 0.11 | 0.00 | 75 | 1014.9 |
| 20260831223242 | 79 | 270 | 2.0 | 2.0 | 0.00 | 0.11 | 0.00 | 75 | 1015.0 |
| 20260831222843 | 80 | 270 | 2.0 | 4.0 | 0.00 | 0.11 | 0.00 | 75 | 1015.1 |
| 20260831222643 | 80 | 270 | 3.0 | 4.0 | 0.00 | 0.11 | 0.00 | 75 | 1015.2 |
| 20260831222243 | 80 | 270 | 2.0 | 4.0 | 0.00 | 0.11 | 0.00 | 75 | 1015.1 |
| 20260831222047 | 80 | 270 | 2.0 | 4.0 | 0.00 | 0.11 | 0.00 | 75 | 1015.0 |
| 20260831221842 | 80 | 270 | 2.0 | 4.0 | 0.00 | 0.11 | 0.00 | 75 | 1015.1 |
| 20260831221641 | 80 | 270 | 3.0 | 4.0 | 0.00 | 0.11 | 0.00 | 75 | 1015.1 |
| 20260831221242 | 80 | 248 | 3.0 | 4.0 | 0.00 | 0.11 | 0.00 | 75 | 1015.3 |
| 20260831221053 | 80 | 270 | 4.0 | 4.0 | 0.00 | 0.11 | 0.00 | 75 | 1014.9 |
| 20260831220843 | 80 | 248 | 4.0 | 6.0 | 0.00 | 0.11 | 0.00 | 75 | 1015.0 |
| 20260831220642 | 80 | 248 | 4.0 | 7.0 | 0.00 | 0.11 | 0.00 | 75 | 1015.1 |
| 20260831220442 | 80 | 270 | 4.0 | 7.0 | 0.00 | 0.11 | 0.00 | 75 | 1015.2 |
| 20260831220242 | 80 | 270 | 4.0 | 7.0 | 0.00 | 0.11 | 0.11 | 74 | 1015.0 |
| 20260831220107 | 80 | 248 | 4.0 | 6.0 | 0.00 | 0.11 | 0.11 | 74 | 1015.1 |
| 20260831215844 | 80 | 270 | 4.0 | 6.0 | 0.00 | 0.11 | 0.11 | 74 | 1015.0 |
| 20260831215644 | 80 | 270 | 4.0 | 6.0 | 0.00 | 0.11 | 0.11 | 74 | 1014.9 |
| 20260831215442 | 81 | 248 | 3.0 | 4.0 | 0.00 | 0.11 | 0.11 | 73 | 1014.9 |
| 20260831215243 | 81 | 270 | 4.0 | 6.0 | 0.00 | 0.11 | 0.11 | 73 | 1015.1 |
| 20260831215048 | 81 | 248 | 3.0 | 4.0 | 0.00 | 0.11 | 0.11 | 72 | 1015.0 |
| 20260831214643 | 81 | 248 | 3.0 | 4.0 | 0.00 | 0.11 | 0.11 | 72 | 1014.8 |
| 20260831214442 | 80 | 270 | 4.0 | 6.0 | 0.00 | 0.11 | 0.11 | 72 | 1014.9 |
| 20260831214243 | 80 | 270 | 2.0 | 4.0 | 0.00 | 0.11 | 0.11 | 73 | 1014.9 |
| 20260831214054 | 80 | 270 | 2.0 | 4.0 | 0.00 | 0.11 | 0.11 | 73 | 1015.1 |
| 20260831213842 | 80 | 248 | 2.0 | 4.0 | 0.00 | 0.11 | 0.11 | 73 | 1014.9 |
| 20260831213642 | 80 | 270 | 3.0 | 4.0 | 0.00 | 0.11 | 0.11 | 73 | 1015.0 |
| 20260831213442 | 81 | 292 | 3.0 | 4.0 | 0.00 | 0.11 | 0.11 | 73 | 1015.0 |
| 20260831213242 | 81 | 315 | 3.0 | 4.0 | 0.00 | 0.11 | 0.11 | 73 | 1015.0 |
| 20260831212842 | 81 | 292 | 4.0 | 4.0 | 0.00 | 0.11 | 0.11 | 73 | 1014.8 |
| 20260831212643 | 81 | 270 | 4.0 | 6.0 | 0.00 | 0.11 | 0.11 | 73 | 1014.9 |
| 20260831212443 | 80 | 270 | 3.0 | 4.0 | 0.00 | 0.11 | 0.11 | 73 | 1014.8 |
| 20260831212242 | 80 | 248 | 2.0 | 4.0 | 0.00 | 0.11 | 0.11 | 74 | 1014.9 |
| 20260831212047 | 80 | 248 | 2.0 | 2.0 | 0.00 | 0.11 | 0.11 | 74 | 1014.8 |
| 20260831211842 | 80 | 292 | 3.0 | 4.0 | 0.00 | 0.11 | 0.11 | 74 | 1014.7 |
| 20260831211641 | 80 | 270 | 4.0 | 4.0 | 0.00 | 0.11 | 0.11 | 74 | 1014.9 |
| 20260831211242 | 80 | 292 | 4.0 | 6.0 | 0.00 | 0.11 | 0.11 | 74 | 1014.8 |
| 20260831211058 | 81 | 292 | 4.0 | 6.0 | 0.00 | 0.11 | 0.11 | 74 | 1014.8 |
| 20260831210843 | 81 | 338 | 4.0 | 4.0 | 0.00 | 0.11 | 0.11 | 74 | 1014.6 |
| 20260831210443 | 81 | 315 | 4.0 | 6.0 | 0.00 | 0.11 | 0.11 | 74 | 1014.6 |
| 20260831210242 | 81 | 315 | 2.0 | 4.0 | 0.00 | 0.11 | 0.11 | 73 | 1014.6 |
| 20260831205842 | 81 | 292 | 5.0 | 8.0 | 0.00 | 0.11 | 0.11 | 74 | 1014.6 |
| 20260831205641 | 81 | 292 | 4.0 | 7.0 | 0.00 | 0.11 | 0.11 | 75 | 1014.7 |
| 20260831205443 | 80 | 315 | 4.0 | 7.0 | 0.00 | 0.11 | 0.11 | 75 | 1014.6 |
| 20260831205046 | 81 | 292 | 3.0 | 4.0 | 0.00 | 0.11 | 0.11 | 75 | 1014.5 |
| 20260831204842 | 80 | 315 | 4.0 | 6.0 | 0.00 | 0.11 | 0.11 | 75 | 1014.6 |
| 20260831204643 | 80 | 292 | 3.0 | 4.0 | 0.00 | 0.11 | 0.11 | 75 | 1014.6 |
| 20260831204442 | 80 | 270 | 4.0 | 4.0 | 0.00 | 0.11 | 0.11 | 75 | 1014.6 |
| 20260831204243 | 80 | 292 | 3.0 | 4.0 | 0.00 | 0.11 | 0.11 | 75 | 1014.6 |
| 20260831204048 | 80 | 292 | 4.0 | 6.0 | 0.00 | 0.11 | 0.11 | 75 | 1014.5 |
| 20260831203842 | 80 | 270 | 2.0 | 4.0 | 0.00 | 0.11 | 0.11 | 75 | 1014.5 |
| 20260831203641 | 80 | 292 | 2.0 | 4.0 | 0.00 | 0.11 | 0.11 | 76 | 1014.5 |
| 20260831203445 | 80 | 292 | 2.0 | 2.0 | 0.00 | 0.11 | 0.11 | 76 | 1014.5 |
| 20260831203242 | 80 | 292 | 2.0 | 4.0 | 0.00 | 0.11 | 0.11 | 77 | 1014.5 |
| 20260831203051 | 79 | 292 | 3.0 | 4.0 | 0.00 | 0.11 | 0.11 | 77 | 1014.6 |
| 20260831202841 | 79 | 292 | 2.0 | 4.0 | 0.00 | 0.11 | 0.11 | 78 | 1014.7 |
| 20260831202642 | 79 | 292 | 2.0 | 4.0 | 0.00 | 0.11 | 0.11 | 79 | 1014.6 |
| 20260831202443 | 79 | 292 | 2.0 | 2.0 | 0.00 | 0.11 | 0.11 | 79 | 1014.6 |
| 20260831202243 | 79 | 292 | 2.0 | 2.0 | 0.00 | 0.11 | 0.11 | 80 | 1014.7 |
| 20260831202047 | 79 | 292 | 1.0 | 2.0 | 0.00 | 0.11 | 0.11 | 81 | 1014.7 |
| 20260831201843 | 79 | 292 | 0.0 | 0.0 | 0.00 | 0.11 | 0.11 | 81 | 1014.5 |
| 20260831201642 | 78 | 292 | 0.0 | 0.0 | 0.00 | 0.11 | 0.11 | 82 | 1014.5 |
| 20260831201442 | 78 | 292 | 0.0 | 0.0 | 0.00 | 0.11 | 0.11 | 83 | 1014.6 |
| 20260831201244 | 78 | 270 | 0.0 | 0.0 | 0.00 | 0.11 | 0.11 | 84 | 1014.5 |
| 20260831201053 | 78 | 270 | 0.0 | 0.0 | 0.00 | 0.11 | 0.11 | 86 | 1014.6 |
| 20260831200442 | 78 | 270 | 0.0 | 0.0 | 0.00 | 0.11 | 0.11 | 89 | 1014.5 |
| 20260831200244 | 78 | 292 | 0.0 | 0.0 | 0.00 | 0.11 | 0.11 | 89 | 1014.5 |
| 20260831200051 | 78 | 292 | 0.0 | 0.0 | 0.00 | 0.11 | 0.11 | 89 | 1014.3 |
| 20260831195842 | 78 | 292 | 0.0 | 0.0 | 0.00 | 0.11 | 0.11 | 89 | 1014.4 |
| 20260831195650 | 78 | 292 | 0.0 | 0.0 | 0.00 | 0.11 | 0.11 | 90 | 1014.4 |
| 20260831195243 | 78 | 270 | 0.0 | 0.0 | 0.00 | 0.11 | 0.11 | 90 | 1014.3 |
| 20260831195047 | 78 | 270 | 0.0 | 0.0 | 0.00 | 0.11 | 0.11 | 90 | 1014.4 |
| 20260831194843 | 78 | 315 | 0.0 | 0.0 | 0.00 | 0.11 | 0.11 | 90 | 1014.5 |
| 20260831194644 | 78 | 315 | 0.0 | 0.0 | 0.00 | 0.11 | 0.11 | 90 | 1014.5 |
| 20260831194443 | 78 | 292 | 0.0 | 0.0 | 0.00 | 0.11 | 0.11 | 90 | 1014.5 |
| 20260831194243 | 78 | 292 | 0.0 | 0.0 | 0.00 | 0.11 | 0.11 | 90 | 1014.3 |
| 20260831194049 | 78 | 270 | 0.0 | 0.0 | 0.00 | 0.11 | 0.11 | 90 | 1014.2 |
| 20260831193842 | 78 | 270 | 0.0 | 0.0 | 0.00 | 0.11 | 0.11 | 90 | 1014.3 |
| 20260831193642 | 78 | 270 | 0.0 | 0.0 | 0.00 | 0.11 | 0.11 | 90 | 1014.3 |
| 20260831193243 | 79 | 292 | 0.0 | 0.0 | 0.00 | 0.11 | 0.11 | 90 | 1014.5 |
| 20260831193049 | 79 | 338 | 0.0 | 0.0 | 0.00 | 0.11 | 0.11 | 90 | 1014.6 |
| 20260831192842 | 79 | 68 | 0.0 | 2.0 | 0.00 | 0.11 | 0.11 | 90 | 1014.5 |
| 20260831192242 | 79 | 315 | 0.0 | 0.0 | 0.00 | 0.11 | 0.11 | 90 | 1014.2 |
| 20260831192048 | 80 | 292 | 0.0 | 0.0 | 0.00 | 0.11 | 0.11 | 90 | 1014.4 |
| 20260831191843 | 79 | 292 | 0.0 | 0.0 | 0.00 | 0.11 | 0.11 | 90 | 1014.2 |
| 20260831191645 | 79 | 292 | 0.0 | 0.0 | 0.00 | 0.11 | 0.11 | 90 | 1014.2 |
| 20260831191444 | 80 | 315 | 1.0 | 2.0 | 0.00 | 0.11 | 0.11 | 90 | 1014.2 |
| 20260831191259 | 80 | 292 | 0.0 | 0.0 | 0.00 | 0.11 | 0.11 | 90 | 1014.3 |
| 20260831191052 | 80 | 292 | 0.0 | 0.0 | 0.00 | 0.11 | 0.11 | 90 | 1014.2 |
| 20260831190842 | 80 | 292 | 0.0 | 0.0 | 0.00 | 0.11 | 0.11 | 90 | 1014.2 |
| 20260831190644 | 80 | 292 | 0.0 | 0.0 | 0.00 | 0.11 | 0.11 | 90 | 1014.1 |
| 20260831190444 | 80 | 338 | 0.0 | 0.0 | 0.00 | 0.11 | 0.11 | 90 | 1014.1 |
| 20260831190243 | 80 | 270 | 0.0 | 0.0 | 0.00 | 0.11 | 0.11 | 90 | 1014.0 |
| 20260831190052 | 80 | 270 | 0.0 | 0.0 | 0.00 | 0.11 | 0.11 | 90 | 1013.9 |
| 20260831185843 | 80 | 292 | 0.0 | 0.0 | 0.00 | 0.11 | 0.11 | 89 | 1014.0 |
| 20260831185643 | 80 | 292 | 0.0 | 0.0 | 0.00 | 0.11 | 0.11 | 89 | 1014.1 |
| 20260831185442 | 80 | 292 | 0.0 | 0.0 | 0.00 | 0.11 | 0.11 | 89 | 1014.0 |
| 20260831185244 | 80 | 292 | 0.0 | 0.0 | 0.00 | 0.11 | 0.11 | 89 | 1013.9 |
| 20260831185045 | 80 | 292 | 0.0 | 0.0 | 0.00 | 0.11 | 0.11 | 89 | 1014.1 |
| 20260831184843 | 80 | 315 | 0.0 | 0.0 | 0.00 | 0.11 | 0.11 | 89 | 1014.1 |
| 20260831184644 | 80 | 315 | 0.0 | 0.0 | 0.00 | 0.11 | 0.11 | 89 | 1013.9 |
| 20260831184444 | 80 | 292 | 0.0 | 0.0 | 0.00 | 0.11 | 0.11 | 89 | 1013.9 |
| 20260831184243 | 80 | 292 | 0.0 | 0.0 | 0.00 | 0.11 | 0.11 | 89 | 1014.1 |
| 20260831184047 | 80 | 292 | 0.0 | 0.0 | 0.00 | 0.11 | 0.11 | 89 | 1014.0 |
| 20260831183843 | 80 | 315 | 0.0 | 0.0 | 0.00 | 0.11 | 0.11 | 89 | 1014.1 |
| 20260831183644 | 79 | 338 | 0.0 | 0.0 | 0.00 | 0.11 | 0.11 | 89 | 1014.1 |
| 20260831183443 | 79 | 338 | 0.0 | 0.0 | 0.00 | 0.11 | 0.11 | 89 | 1013.9 |
| 20260831183242 | 79 | 292 | 0.0 | 0.0 | 0.00 | 0.11 | 0.11 | 89 | 1013.8 |
| 20260831183047 | 80 | 338 | 1.0 | 2.0 | 0.00 | 0.11 | 0.11 | 90 | 1013.9 |
| 20260831182842 | 80 | 315 | 1.0 | 2.0 | 0.00 | 0.11 | 0.11 | 90 | 1013.8 |
| 20260831182643 | 80 | 315 | 1.0 | 2.0 | 0.00 | 0.11 | 0.11 | 90 | 1013.9 |
| 20260831182443 | 80 | 315 | 0.0 | 0.0 | 0.00 | 0.11 | 0.11 | 90 | 1013.9 |
| 20260831182046 | 80 | 338 | 0.0 | 0.0 | 0.00 | 0.11 | 0.11 | 90 | 1013.7 |
| 20260831181843 | 80 | 22 | 0.0 | 2.0 | 0.00 | 0.11 | 0.11 | 90 | 1013.7 |
| 20260831181642 | 80 | 0 | 0.0 | 0.0 | 0.00 | 0.11 | 0.11 | 90 | 1013.6 |
| 20260831181443 | 80 | 315 | 0.0 | 2.0 | 0.00 | 0.11 | 0.11 | 90 | 1013.6 |
| 20260831181242 | 80 | 338 | 1.0 | 2.0 | 0.00 | 0.11 | 0.11 | 90 | 1013.7 |
| 20260831181049 | 80 | 315 | 0.0 | 2.0 | 0.00 | 0.11 | 0.11 | 90 | 1013.6 |
| 20260831180642 | 80 | 315 | 0.0 | 0.0 | 0.00 | 0.11 | 0.11 | 90 | 1013.6 |
| 20260831180443 | 80 | 0 | 0.0 | 2.0 | 0.00 | 0.11 | 0.11 | 91 | 1013.5 |
| 20260831180243 | 80 | 315 | 1.0 | 2.0 | 0.00 | 0.11 | 0.11 | 91 | 1013.5 |
| 20260831180051 | 80 | 45 | 2.0 | 4.0 | 0.00 | 0.11 | 0.11 | 91 | 1013.5 |
| 20260831175842 | 79 | 338 | 1.0 | 2.0 | 0.00 | 0.11 | 0.11 | 91 | 1013.5 |
| 20260831175642 | 79 | 338 | 0.0 | 2.0 | 0.00 | 0.11 | 0.11 | 91 | 1013.5 |
| 20260831175443 | 79 | 338 | 0.0 | 2.0 | 0.00 | 0.11 | 0.11 | 91 | 1013.8 |
| 20260831175243 | 79 | 0 | 0.0 | 2.0 | 0.00 | 0.11 | 0.11 | 91 | 1013.5 |
| 20260831175046 | 79 | 45 | 2.0 | 4.0 | 0.00 | 0.11 | 0.11 | 91 | 1013.7 |
| 20260831174844 | 80 | 45 | 2.0 | 2.0 | 0.00 | 0.11 | 0.11 | 91 | 1013.5 |
| 20260831174443 | 80 | 68 | 2.0 | 2.0 | 0.00 | 0.11 | 0.11 | 91 | 1013.4 |
| 20260831174243 | 80 | 68 | 2.0 | 4.0 | 0.00 | 0.11 | 0.11 | 91 | 1013.5 |
| 20260831174052 | 80 | 90 | 1.0 | 2.0 | 0.00 | 0.11 | 0.11 | 91 | 1013.6 |
| 20260831173842 | 80 | 90 | 1.0 | 2.0 | 0.00 | 0.11 | 0.11 | 91 | 1013.6 |
| 20260831173642 | 80 | 90 | 2.0 | 2.0 | 0.00 | 0.11 | 0.11 | 91 | 1013.7 |
| 20260831173443 | 80 | 68 | 0.0 | 0.0 | 0.00 | 0.11 | 0.11 | 92 | 1013.6 |
| 20260831173242 | 80 | 68 | 0.0 | 0.0 | 0.00 | 0.11 | 0.11 | 91 | 1013.6 |
| 20260831173048 | 79 | 270 | 0.0 | 0.0 | 0.01 | 0.11 | 0.11 | 92 | 1013.5 |
| 20260831172842 | 79 | 270 | 0.0 | 2.0 | 0.03 | 0.11 | 0.11 | 91 | 1013.2 |
| 20260831172642 | 79 | 248 | 0.0 | 0.0 | 0.07 | 0.11 | 0.11 | 91 | 1013.5 |
| 20260831172444 | 79 | 270 | 1.0 | 2.0 | 0.11 | 0.11 | 0.11 | 91 | 1013.6 |
| 20260831172243 | 79 | 292 | 1.0 | 2.0 | 0.11 | 0.11 | 0.11 | 92 | 1013.5 |
| 20260831172046 | 79 | 315 | 1.0 | 2.0 | 0.11 | 0.11 | 0.11 | 92 | 1013.4 |
| 20260831171842 | 80 | 315 | 0.0 | 2.0 | 0.11 | 0.11 | 0.11 | 92 | 1013.4 |
| 20260831171644 | 79 | 315 | 0.0 | 0.0 | 0.11 | 0.11 | 0.11 | 92 | 1013.6 |
| 20260831171442 | 79 | 292 | 0.0 | 2.0 | 0.11 | 0.11 | 0.11 | 92 | 1013.7 |
| 20260831171244 | 79 | 292 | 2.0 | 2.0 | 0.11 | 0.11 | 0.11 | 91 | 1013.8 |
| 20260831171052 | 79 | 292 | 1.0 | 2.0 | 0.11 | 0.11 | 0.11 | 91 | 1013.7 |
| 20260831170842 | 79 | 292 | 2.0 | 4.0 | 0.11 | 0.11 | 0.11 | 91 | 1013.7 |
| 20260831170642 | 79 | 292 | 2.0 | 2.0 | 0.11 | 0.11 | 0.11 | 91 | 1013.6 |
| 20260831170051 | 79 | 270 | 0.0 | 0.0 | 0.11 | 0.11 | 0.11 | 91 | 1013.5 |
| 20260831165842 | 79 | 45 | 2.0 | 2.0 | 0.11 | 0.11 | 0.11 | 90 | 1013.5 |
| 20260831165644 | 79 | 45 | 2.0 | 4.0 | 0.11 | 0.11 | 0.11 | 90 | 1013.5 |
| 20260831165443 | 79 | 22 | 2.0 | 4.0 | 0.11 | 0.11 | 0.11 | 90 | 1013.4 |
| 20260831165241 | 79 | 45 | 2.0 | 2.0 | 0.11 | 0.11 | 0.11 | 89 | 1013.2 |
| 20260831165046 | 79 | 68 | 2.0 | 4.0 | 0.11 | 0.11 | 0.11 | 89 | 1013.4 |
| 20260831164448 | 80 | 292 | 1.0 | 2.0 | 0.11 | 0.11 | 0.11 | 88 | 1013.5 |
| 20260831164050 | 80 | 315 | 2.0 | 4.0 | 0.11 | 0.11 | 0.11 | 87 | 1013.4 |
| 20260831163843 | 80 | 292 | 3.0 | 4.0 | 0.11 | 0.11 | 0.11 | 87 | 1013.6 |
| 20260831163643 | 80 | 292 | 2.0 | 4.0 | 0.11 | 0.11 | 0.11 | 86 | 1013.4 |
| 20260831163443 | 80 | 292 | 4.0 | 7.0 | 0.11 | 0.11 | 0.11 | 85 | 1013.6 |
| 20260831163243 | 80 | 292 | 4.0 | 6.0 | 0.10 | 0.10 | 0.10 | 84 | 1013.6 |
| 20260831163051 | 82 | 270 | 7.0 | 13.0 | 0.08 | 0.08 | 0.08 | 82 | 1013.7 |
| 20260831162843 | 84 | 0 | 7.0 | 13.0 | 0.04 | 0.04 | 0.04 | 79 | 1013.9 |
| 20260831162643 | 85 | 292 | 7.0 | 9.0 | 0.00 | 0.00 | 0.00 | 73 | 1013.8 |
| 20260831162442 | 85 | 338 | 5.0 | 9.0 | 0.00 | 0.00 | 0.00 | 71 | 1013.9 |
| 20260831162243 | 87 | 315 | 6.0 | 11.0 | 0.00 | 0.00 | 0.00 | 68 | 1014.1 |
| 20260831162046 | 87 | 315 | 3.0 | 7.0 | 0.00 | 0.00 | 0.00 | 66 | 1014.3 |
| 20260831161642 | 87 | 270 | 2.0 | 4.0 | 0.00 | 0.00 | 0.00 | 67 | 1014.1 |
| 20260831161442 | 87 | 248 | 2.0 | 2.0 | 0.00 | 0.00 | 0.00 | 66 | 1013.6 |
| 20260831161243 | 87 | 270 | 1.0 | 2.0 | 0.00 | 0.00 | 0.00 | 66 | 1013.6 |
| 20260831160842 | 87 | 248 | 2.0 | 2.0 | 0.00 | 0.00 | 0.00 | 66 | 1013.6 |
| 20260831160642 | 87 | 225 | 3.0 | 4.0 | 0.00 | 0.00 | 0.00 | 66 | 1013.4 |
| 20260831160442 | 87 | 225 | 3.0 | 4.0 | 0.00 | 0.00 | 0.00 | 66 | 1013.3 |
| 20260831160243 | 87 | 248 | 4.0 | 6.0 | 0.00 | 0.00 | 0.00 | 66 | 1013.4 |
| 20260831160050 | 87 | 248 | 4.0 | 6.0 | 0.00 | 0.00 | 0.00 | 66 | 1013.4 |
| 20260831155842 | 87 | 225 | 1.0 | 2.0 | 0.00 | 0.00 | 0.00 | 66 | 1013.3 |
| 20260831155643 | 87 | 180 | 3.0 | 4.0 | 0.00 | 0.00 | 0.00 | 66 | 1013.4 |
| 20260831155442 | 87 | 225 | 5.0 | 8.0 | 0.00 | 0.00 | 0.00 | 66 | 1013.4 |
| 20260831155242 | 87 | 225 | 7.0 | 8.0 | 0.00 | 0.00 | 0.00 | 66 | 1013.1 |
| 20260831155045 | 87 | 180 | 2.0 | 4.0 | 0.00 | 0.00 | 0.00 | 66 | 1013.3 |
| 20260831154643 | 87 | 225 | 4.0 | 9.0 | 0.00 | 0.00 | 0.00 | 66 | 1013.3 |
| 20260831154442 | 87 | 202 | 3.0 | 6.0 | 0.00 | 0.00 | 0.00 | 66 | 1013.0 |
| 20260831154242 | 87 | 202 | 2.0 | 4.0 | 0.00 | 0.00 | 0.00 | 66 | 1013.2 |
| 20260831153842 | 88 | 202 | 4.0 | 6.0 | 0.00 | 0.00 | 0.00 | 66 | 1013.1 |
| 20260831153642 | 88 | 158 | 3.0 | 4.0 | 0.00 | 0.00 | 0.00 | 66 | 1013.2 |
| 20260831153442 | 88 | 225 | 2.0 | 2.0 | 0.00 | 0.00 | 0.00 | 67 | 1013.1 |
| 20260831153241 | 88 | 270 | 2.0 | 4.0 | 0.00 | 0.00 | 0.00 | 67 | 1012.9 |
| 20260831153048 | 88 | 180 | 3.0 | 4.0 | 0.00 | 0.00 | 0.00 | 67 | 1013.3 |
| 20260831152841 | 88 | 248 | 2.0 | 4.0 | 0.00 | 0.00 | 0.00 | 67 | 1013.2 |
| 20260831152643 | 88 | 158 | 3.0 | 4.0 | 0.00 | 0.00 | 0.00 | 66 | 1013.2 |
| 20260831152241 | 88 | 68 | 4.0 | 7.0 | 0.00 | 0.00 | 0.00 | 66 | 1013.2 |
| 20260831152047 | 88 | 158 | 4.0 | 7.0 | 0.00 | 0.00 | 0.00 | 65 | 1013.4 |
| 20260831151843 | 88 | 135 | 4.0 | 6.0 | 0.00 | 0.00 | 0.00 | 65 | 1013.3 |
| 20260831151641 | 88 | 202 | 4.0 | 8.0 | 0.00 | 0.00 | 0.00 | 65 | 1013.3 |
| 20260831151442 | 88 | 180 | 3.0 | 7.0 | 0.00 | 0.00 | 0.00 | 65 | 1013.2 |
| 20260831151241 | 88 | 180 | 4.0 | 7.0 | 0.00 | 0.00 | 0.00 | 65 | 1013.2 |
| 20260831150843 | 89 | 180 | 4.0 | 7.0 | 0.00 | 0.00 | 0.00 | 64 | 1013.1 |
| 20260831150442 | 89 | 158 | 5.0 | 7.0 | 0.00 | 0.00 | 0.00 | 64 | 1013.0 |
| 20260831150242 | 89 | 158 | 6.0 | 8.0 | 0.00 | 0.00 | 0.00 | 64 | 1013.2 |
| 20260831150052 | 89 | 225 | 4.0 | 6.0 | 0.00 | 0.00 | 0.00 | 64 | 1013.0 |
| 20260831145843 | 90 | 202 | 4.0 | 7.0 | 0.00 | 0.00 | 0.00 | 64 | 1013.0 |
| 20260831145641 | 90 | 202 | 4.0 | 7.0 | 0.00 | 0.00 | 0.00 | 63 | 1013.1 |
| 20260831145443 | 90 | 135 | 4.0 | 8.0 | 0.00 | 0.00 | 0.00 | 62 | 1013.1 |
| 20260831145242 | 91 | 135 | 4.0 | 8.0 | 0.00 | 0.00 | 0.00 | 61 | 1013.2 |
| 20260831145046 | 91 | 248 | 6.0 | 8.0 | 0.00 | 0.00 | 0.00 | 60 | 1013.0 |
| 20260831144841 | 91 | 135 | 4.0 | 6.0 | 0.00 | 0.00 | 0.00 | 59 | 1013.0 |
| 20260831144641 | 91 | 180 | 4.0 | 7.0 | 0.00 | 0.00 | 0.00 | 56 | 1013.1 |
| 20260831144242 | 91 | 202 | 2.0 | 4.0 | 0.00 | 0.00 | 0.00 | 55 | 1013.2 |
| 20260831144050 | 91 | 90 | 4.0 | 7.0 | 0.00 | 0.00 | 0.00 | 55 | 1013.2 |
| 20260831143842 | 92 | 180 | 5.0 | 7.0 | 0.00 | 0.00 | 0.00 | 55 | 1013.3 |
| 20260831143641 | 92 | 180 | 5.0 | 8.0 | 0.00 | 0.00 | 0.00 | 55 | 1013.5 |
| 20260831143442 | 92 | 158 | 4.0 | 7.0 | 0.00 | 0.00 | 0.00 | 54 | 1013.3 |
| 20260831143242 | 92 | 180 | 6.0 | 8.0 | 0.00 | 0.00 | 0.00 | 53 | 1013.2 |
| 20260831143049 | 93 | 180 | 4.0 | 7.0 | 0.00 | 0.00 | 0.00 | 53 | 1013.3 |
| 20260831142841 | 93 | 202 | 5.0 | 8.0 | 0.00 | 0.00 | 0.00 | 52 | 1013.2 |
| 20260831142642 | 94 | 158 | 4.0 | 6.0 | 0.00 | 0.00 | 0.00 | 51 | 1012.9 |
| 20260831142443 | 94 | 135 | 4.0 | 7.0 | 0.00 | 0.00 | 0.00 | 51 | 1012.9 |
| 20260831142243 | 94 | 112 | 5.0 | 8.0 | 0.00 | 0.00 | 0.00 | 51 | 1013.0 |
| 20260831142047 | 94 | 90 | 4.0 | 6.0 | 0.00 | 0.00 | 0.00 | 51 | 1012.8 |
| 20260831141841 | 94 | 112 | 5.0 | 8.0 | 0.00 | 0.00 | 0.00 | 53 | 1012.8 |
| 20260831141643 | 94 | 180 | 5.0 | 8.0 | 0.00 | 0.00 | 0.00 | 52 | 1012.7 |
| 20260831141048 | 94 | 112 | 5.0 | 9.0 | 0.00 | 0.00 | 0.00 | 52 | 1012.7 |
| 20260831140842 | 93 | 158 | 4.0 | 7.0 | 0.00 | 0.00 | 0.00 | 53 | 1012.7 |
| 20260831140442 | 94 | 135 | 4.0 | 8.0 | 0.00 | 0.00 | 0.00 | 52 | 1012.6 |
| 20260831140242 | 95 | 112 | 4.0 | 9.0 | 0.00 | 0.00 | 0.00 | 52 | 1012.8 |
| 20260831140051 | 95 | 180 | 3.0 | 6.0 | 0.00 | 0.00 | 0.00 | 51 | 1012.6 |
| 20260831135841 | 94 | 135 | 3.0 | 6.0 | 0.00 | 0.00 | 0.00 | 51 | 1012.7 |
| 20260831135642 | 94 | 158 | 3.0 | 4.0 | 0.00 | 0.00 | 0.00 | 51 | 1012.8 |
| 20260831135443 | 94 | 135 | 7.0 | 8.0 | 0.00 | 0.00 | 0.00 | 52 | 1012.6 |
| 20260831135242 | 94 | 112 | 4.0 | 7.0 | 0.00 | 0.00 | 0.00 | 52 | 1012.5 |
| 20260831135044 | 93 | 135 | 5.0 | 8.0 | 0.00 | 0.00 | 0.00 | 52 | 1012.7 |
| 20260831134842 | 94 | 158 | 5.0 | 9.0 | 0.00 | 0.00 | 0.00 | 50 | 1012.5 |
| 20260831134642 | 94 | 135 | 5.0 | 8.0 | 0.00 | 0.00 | 0.00 | 51 | 1012.4 |